Regional Weather Roundup
Issued by NWS

Home | Current Version | Previous Version | Graphics & Text | Print | Product List | Glossary On
Versions: 1 2 3 4 5 6 7 8 9 10 11 12 13 14 15 16 17 18 19 20 21 22 23 24 25 26 27 28 29 30 31 32 33 34 35 36 37 38 39 40 41 42 43 44 45 46 47 48 49 50
000
ASUS45 KCYS 030010
RWRWY

WYOMING REGIONAL WEATHER ROUNDUP
NATIONAL WEATHER SERVICE CHEYENNE WY
600 PM MDT WED SEP 02 2015

NOTE:  "FAIR" INDICATES FEW OR NO CLOUDS BELOW 12,000 FEET
WITH NO SIGNIFICANT WEATHER AND/OR OBSTRUCTIONS TO VISIBILITY.

WYZ001-030100-
YELLOWSTONE NATIONAL PARK

CITY           SKY/WX    TMP DP  RH WIND       PRES   REMARKS
LK YELLOWSTONE   N/A     68  35  29 VRB5      30.11R
6HR MIN TEMP:  66; 6HR MAX TEMP:  73;

W YELLOWSTONE  NOT AVBL

$$
WYZ002>013-054>058-071-098>099-030100-
NORTHERN WYOMING

CITY           SKY/WX    TMP DP  RH WIND       PRES   REMARKS
JACKSON        MOSUNNY   79  36  21 SW12G23   29.99S
CODY           FAIR      88  30  12 W10G22    29.82S
GREYBULL       FAIR      94  28   9 S14G26    29.71F
6HR MIN TEMP:  90; 6HR MAX TEMP:  97;

WORLAND        FAIR      92  38  15 SW8       29.77S
6HR MIN TEMP:  90; 6HR MAX TEMP:  95;

SHERIDAN       FAIR      93  31  11 SW13      29.75R
6HR MIN TEMP:  92; 6HR MAX TEMP:  98;

BUFFALO        FAIR      90  28  11 SW14G24   29.86S
6HR MIN TEMP:  88; 6HR MAX TEMP:  95;

GILLETTE       FAIR      91  33  12 SW20G25   29.81S
6HR MIN TEMP:  90; 6HR MAX TEMP:  95;

HULETT         FAIR      91  32  12 S7        29.82F
NEWCASTLE      FAIR      91  28  10 MISG      29.85R

$$
WYZ014>020-022>026-101>103-030100-
CENTRAL WYOMING

CITY           SKY/WX    TMP DP  RH WIND       PRES   REMARKS
BIG PINEY      FAIR      73  39  29 W12       30.08S
6HR MIN TEMP:  73; 6HR MAX TEMP:  83;

PINEDALE       MOCLDY    75  32  20 SW20G25   30.08S
DUBOIS         FAIR      77  28  16 W7        30.03F
LANDER         FAIR      85  31  14 SW14G25   29.90F
6HR MIN TEMP:  85; 6HR MAX TEMP:  91;

RIVERTON       FAIR      87  27  11 S16G23    29.90F
6HR MIN TEMP:  84; 6HR MAX TEMP:  91;

CASPER         FAIR      86  34  15 SW20G31   29.94F
6HR MIN TEMP:  84; 6HR MAX TEMP:  90;

DOUGLAS        FAIR      91  30  11 W9        29.93S
6HR MIN TEMP:  87; 6HR MAX TEMP:  94;


$$
WYZ021-027>030-104>119-030100-
SOUTHERN WYOMING

CITY           SKY/WX    TMP DP  RH WIND       PRES   REMARKS
EVANSTON       FAIR      78  31  17 SW21G28   30.10F
6HR MIN TEMP:  72; 6HR MAX TEMP:  80;

KEMMERER       FAIR      73  30  20 SW20G26   30.12R
FORT BRIDGER   CLEAR     81  30  16 W21G26    30.12F
ROCK SPRINGS   FAIR      78  37  22 SW17      30.07S
6HR MIN TEMP:  75; 6HR MAX TEMP:  81;

DIXON          FAIR      78  41  26 S10       30.13S
RAWLINS        FAIR      80  34  19 SW16G30   30.09F
6HR MIN TEMP:  78; 6HR MAX TEMP:  84;

SARATOGA       FAIR      79  32  18 SW15G28   30.14S
LARAMIE        PTSUNNY   77  40  26 SW23G30   30.15R
6HR MIN TEMP:  74; 6HR MAX TEMP:  81;

CHEYENNE       FAIR      83  35  18 SW9       30.06R
6HR MIN TEMP:  83; 6HR MAX TEMP:  89;

TORRINGTON     FAIR      91  40  16 SE8       29.87F
6HR MIN TEMP:  89; 6HR MAX TEMP:  96;

PINE BLUFFS    FAIR      86  32  14 CALM      29.98S

$$



USA.gov is the U.S. government's official web portal to all federal, state and local government web resources and services.